SCP
0 0 0 0 0 0 0 0 0 0 0 0 0 0 0 0 0 0 0 0 0 0 0 0 0 0 0 0 0 0 0 0 0 0 0 0 0 0 0 0 0 0 0 0
0 0 0 0 0 0 0 0 0 0 0 0 0 0 0 0 0 0 0 0 0 0 0 0 0 0 0 0 0 0 0 0 0 0 0 0 0 0 0 0 0 0 0 0
0 0 0 0 0 0 0 0 0 0 0 0 0 0 0 0 0 0 0 0 0 0 0 0 0 0 0 0 0 0 0 0 0 0 0 0 0 0 0 0 0 0 0 0
0 0 0 0 0 0 0 0 0 0 0 0 0 0 0 0 0 0 0 0 0 0 0 0 0 0 0 0 0 0 0 0 0 0 0 0 0 0 0 0 0 0 0 0
0 0 0 0 0 0 0 0 0 0 0 0 0 0 -0 -0 0 0 0 0 0 0 0 0 0 0 0 0 0 0 0 0 0 0 0 0 0 0 0 0 0 0 0 0
0 0 0 0 0 0 0 0 0 0 0 0 0 0 0 0 0 0 0 0 0 0 0 0 0 0 0 0 0 0 0 0 0 0 0 -0 -0 0 0 0 0 0 0 0
0 0 0 0 0 0 0 0 0 0 0 0 -0 -0 -0 -0 0 0 0 0 0 0 0 -0 0 0 0 0 0 0 0 0 0 0 0 -0 -0 0 0 0 0 0 0 0
0 0 0 0 0 0 0 0 0 0 -0 -0 -0 -0 -0 0 0 0 0 0 0 0 0 0 0 -0 0 -0 -0 0 0 0 0 0 0 0 0 0 0 0 0 0 0 0
0 0 0 0 0 0 0 0 0 0 0 0 0 0 0 0 0 0 0 0 0 0 0 0 0 0 0 0 0 -0 0 0 0 0 0 0 0 0 0 0 0 0 0 0
-0 0 -0 -0 -0 0 -0 0 0 0 -0 0 0 0 0 0 0 0 0 0 0 0 0 0 0 0 0 0 0 -0 -0 -0 -0 -0 -0 -0 -0 -0 0 0 0 0 0 0
-0 -0 -0 -0 -0 0 0 0 0 0 0 0 0 0 0 0 0 0 0 0 0 0 0 0 0 0 0 0 0 0 0 -0 -0 -0 -0 -0 0 0 0 0 0 0 0 0
0 0 -0 -0 -0 0 0 0 0 0 0 -0 0 0 0 0 0 0 0 0 0 0 0 0 0 0 0 -0 0 0 0 -0 0 0 0 -0 0 0 0 0 0 0 0 0
-0 0 -0 -0 0 0 0 0 0 0 0 0 0 0 0 0 0 0 0 0 0 0 0 0 0 0 0 0 0 -0 0 -0 -0 0 -0 0 0 0 0 0 0 0 0 0
0 -0 0 0 0 0 0 0 0 0 0 0 0 0 0 0 0 0 0 0 0 0 0 0 0 0 0 0 0 0 -0 -0 -0 0 0 0 0 0 0 0 0 0 0 0
0 0 0 0 0 0 0 0 0 0 0 0 0 0 0 0 0 0 0 0 0 0 0 0 0 0 0 0 0 0 -0 -0 0 0 0 0 0 0 0 0 0 0 0 0
0 0 0 0 0 0 0 0 0 0 0 0 0 0 0 0 0 0 0 0 0 0 0 0 0 0 0 0 0 -0 -0 -0 -0 -0 0 0 0 0 0 0 0 0 0 0
0 0 0 0 0 0 0 0 0 0 0 0 0 0 0 0 0 0 0 0 0 0 0 0 0 0 0 0 0 -0 0 -0 -0 -0 0 0 0 0 0 0 0 0 0 0
0 0 0 0 0 0 0 0 0 0 0 0 0 0 0 0 0 0 0 0 0 0 0 0 0 0 0 0 -0 -0 -0 -0 -0 -0 -0 0 0 0 0 0 0 0 0 0
0 0 0 0 0 0 0 0 0 0 0 0 0 0 0 0 0 0 0 0 0 0 0 0 0 0 0 0 0 -0 0 -0 -0 0 -0 0 0 0 0 0 0 0 0 0
0 0 0 0 0 0 0 0 0 0 0 0 0 0 0 0 0 0 0 0 0 0 0 0 0 0 0 0 -0 -0 -0 -0 -0 -0 -0 -0 0 0 0 0 0 0 0 0
0 0 0 0 0 0 0 0 0 0 0 0 0 0 0 0 0 0 0 0 0 0 0 0 0 0 0 0 0 -0 -0 -0 0 0 0 0 0 0 0 0 0 0 0 0
0 0 0 0 0 0 0 0 0 0 0 0 0 0 0 0 0 0 0 0 0 0 0 0 0 0 0 0 0 -0 -0 -0 -0 -0 0 0 0 -0 -0 0 0 0 0 0
0 0 0 0 0 0 0 0 0 0 0 0 0 0 0 0 0 0 0 0 0 0 0 0 0 0 0 0 0 0 -0 -0 -0 -0 -0 -0 0 0 0 -0 0 0 0 0
0 0 0 0 0 0 0 0 0 0 0 0 0 0 0 0 0 0 0 0 0 0 0 0 0 0 0 0 0 0 0 -0 -0 -0 -0 -0 -0 -0 -0 -0 -0 0 0 0
0 0 0 0 0 0 0 0 0 0 0 0 0 0 0 0 0 0 0 0 0 0 0 0 0 0 0 0 0 0 0 0 0 0 -0 -0 -0 -0 0 -0 -0 -0 0 0
0 0 0 0 0 0 0 0 0 0 0 0 0 0 0 0 0 0 0 0 0 0 0 0 0 0 0 0 0 0 0 0 0 0 0 0 0 -0 -0 -0 0 -0 -0 -0
0 0 0 0 0 0 0 0 0 0 0 0 0 0 0 0 0 0 0 0 0 0 0 0 0 0 0 0 0 0 0 0 0 0 0 0 -0 -0 0 0 -0 -0 -0 -0
Wind_Speed_500mb
49 52 53 52 49 47 43 11 2 28 12 4 4 6 10 9 10 7 14 13 23 24 20 23 21 18 10 15 14 7 1 7 16 23 20 22 22 30 36 34 47 40 39 19
50 49 47 45 41 42 32 12 8 23 15 5 9 13 8 6 15 9 11 14 10 17 22 14 19 13 6 20 18 6 8 8 12 17 34 33 23 39 31 32 41 47 39 38
47 45 41 39 36 33 19 7 2 13 30 27 16 11 17 12 6 12 13 18 21 23 25 25 12 17 12 23 26 10 6 22 23 24 28 22 19 25 29 34 34 40 46 41
43 40 38 37 33 27 18 13 10 10 8 16 11 7 7 7 13 9 16 10 17 18 15 29 32 24 21 25 28 26 17 21 28 35 33 33 36 39 38 40 36 44 41 48
42 38 35 32 28 21 18 9 6 9 10 8 10 10 11 13 9 5 12 15 19 14 14 29 15 19 30 30 29 33 30 26 25 34 32 37 46 47 53 50 50 50 47 57
41 36 30 25 23 22 11 12 9 5 0 3 5 5 4 9 23 9 22 27 17 17 24 33 44 46 39 29 25 33 30 20 24 35 37 41 47 43 54 60 54 55 51 49
40 31 23 17 18 16 13 12 10 2 6 5 7 14 17 18 18 16 23 17 10 7 23 29 35 45 47 52 42 45 28 29 22 28 32 37 45 49 53 62 61 56 52 53
36 26 19 13 15 11 12 10 9 3 3 8 7 18 17 20 17 16 12 11 18 31 34 13 13 23 23 45 51 47 40 24 15 21 25 35 53 47 43 60 59 48 61 60
30 24 17 14 13 12 13 11 8 3 2 3 10 11 16 9 16 14 6 15 20 13 6 5 8 7 6 7 9 38 45 38 21 19 20 30 17 36 79 73 37 35 29 34
26 24 21 16 14 15 15 7 6 2 3 5 9 5 7 8 8 7 18 24 9 4 3 6 6 6 3 7 8 9 28 29 30 30 27 26 29 41 67 19 20 28 12 12
21 20 19 15 15 12 13 6 8 7 3 10 6 6 10 12 10 5 18 15 4 5 5 4 5 5 3 6 3 6 14 12 13 18 18 30 16 34 12 9 25 17 7 19
17 13 16 10 16 12 10 2 3 3 3 5 8 8 11 14 12 15 11 11 9 5 5 4 6 4 6 13 4 2 5 8 5 11 8 9 34 51 32 19 13 9 20 29
16 9 11 12 14 9 9 5 2 4 6 8 6 8 4 7 9 10 9 6 14 5 10 7 4 5 6 8 7 6 4 17 8 6 11 23 25 29 34 11 10 15 22 30
13 10 4 7 6 6 8 9 5 3 7 9 9 7 6 9 11 10 12 24 15 12 5 8 4 6 14 6 6 3 6 15 13 10 11 32 16 35 31 24 21 22 23 29
13 9 6 3 3 4 9 14 8 7 3 11 8 2 6 4 7 15 18 13 12 6 2 4 5 9 7 8 8 3 24 11 8 5 33 12 27 36 32 20 28 25 27 33
12 10 7 6 7 10 6 5 7 13 7 8 6 7 11 11 11 16 13 11 7 10 6 4 7 8 12 7 6 33 47 41 46 26 45 32 44 38 40 37 34 23 30 30
15 14 11 11 11 10 6 7 9 19 10 7 10 5 6 11 14 13 8 10 8 8 5 14 7 10 9 5 9 45 50 45 50 54 50 43 51 49 56 41 31 26 29 29
16 16 14 14 16 13 7 12 20 13 5 7 6 3 7 1 3 6 5 10 4 9 7 10 19 7 12 6 37 41 48 44 51 47 45 43 45 58 59 55 45 47 49 37
19 16 13 14 6 5 12 23 12 6 9 5 4 5 9 4 1 3 4 6 3 1 4 7 9 7 6 17 31 33 40 47 47 47 46 49 51 51 55 56 60 55 47 45
18 9 1 7 7 16 10 4 3 4 5 6 7 4 5 6 6 2 1 4 2 3 4 3 4 5 8 17 23 24 28 34 41 47 56 60 62 59 56 50 49 48 45 44
11 3 5 13 16 1 2 4 8 6 7 10 8 11 12 5 5 2 4 3 2 3 3 4 2 5 12 16 17 16 19 23 30 35 38 40 43 51 54 53 50 46 40 41
13 14 17 8 3 6 8 2 4 6 6 4 13 14 9 4 3 3 5 3 5 3 2 2 5 5 12 14 16 17 9 13 17 22 28 32 38 41 40 45 49 46 43 35
13 1 5 7 6 4 1 3 7 8 14 12 16 12 2 4 6 5 6 8 2 4 3 3 7 8 9 13 14 15 13 7 8 14 20 25 28 31 36 39 42 46 43 45
4 6 7 6 3 6 7 14 14 19 16 21 19 4 9 10 9 5 7 5 6 4 2 5 2 6 4 9 13 16 19 13 10 10 14 20 25 30 33 35 35 37 47 48
7 7 5 7 10 19 13 14 14 12 12 16 12 11 9 8 7 5 1 5 2 4 5 8 18 12 5 4 11 16 19 19 14 13 15 17 23 28 29 29 30 29 32 38
7 9 11 13 18 24 19 14 21 7 11 7 1 7 4 8 4 7 8 8 6 6 8 16 12 7 5 7 9 9 13 16 15 14 14 16 18 22 23 23 27 28 25 29
7 11 13 21 24 24 26 24 25 12 13 6 7 9 4 10 8 7 2 5 11 17 14 10 4 4 6 10 10 7 4 9 9 11 12 15 13 17 21 21 21 25 25 21
Wind_Direction_500mb
342 344 343 346 351 360 10 9 224 354 10 217 358 17 353 349 296 246 276 283 277 275 277 264 251 244 253 167 180 239 149 312 259 251 266 281 284 279 248 232 225 236 261 252
341 343 345 349 1 6 6 4 3 2 16 7 46 28 31 326 309 337 319 289 296 291 270 259 244 223 227 181 208 225 178 213 274 227 213 227 237 244 241 263 272 254 228 228
344 346 349 357 9 11 32 350 354 55 61 55 51 5 23 9 326 298 311 286 284 278 261 249 246 228 199 211 228 126 234 265 248 274 318 346 285 278 280 248 249 250 246 260
348 350 352 360 15 25 53 8 63 17 21 49 47 100 349 335 7 319 305 281 271 265 259 255 238 229 242 214 221 203 236 241 248 256 264 275 270 270 259 255 255 256 264 254
350 350 351 357 22 44 42 29 40 51 80 342 334 35 4 339 346 281 301 267 317 301 254 261 267 281 235 234 221 220 224 255 264 268 261 257 258 260 264 250 249 255 256 265
348 349 352 3 32 61 72 92 83 106 210 304 328 29 283 291 319 298 272 300 297 271 262 256 259 275 257 249 255 223 212 238 245 257 261 254 249 251 257 258 240 242 243 242
347 351 360 9 49 67 90 97 105 165 90 35 360 325 330 348 331 288 293 294 263 301 293 291 262 250 242 240 238 241 224 224 245 257 274 263 259 254 259 253 242 235 242 247
351 6 20 34 55 68 79 91 93 97 23 344 350 344 337 327 328 315 312 309 295 296 288 277 265 252 247 242 238 224 224 220 244 242 248 263 278 272 266 235 231 229 238 226
6 22 31 49 80 82 86 84 89 84 318 53 315 329 331 331 346 333 322 332 318 310 302 261 266 275 281 289 257 213 215 202 214 242 250 260 267 321 319 309 208 199 226 241
23 40 49 72 97 103 101 91 78 100 310 6 328 333 314 297 294 293 284 335 326 359 285 259 286 307 11 248 238 186 199 206 214 231 251 271 288 301 302 244 163 156 168 267
30 51 63 93 116 113 113 113 95 113 315 337 336 305 306 299 268 289 311 312 59 305 288 301 342 287 305 274 62 213 186 185 212 233 244 255 18 305 227 35 91 101 141 112
16 59 89 106 114 116 92 322 258 269 217 322 330 308 293 279 298 315 309 314 354 320 307 337 299 305 315 315 39 46 200 219 282 220 228 339 296 282 328 2 74 67 78 88
14 26 119 107 83 70 71 40 336 57 295 267 11 33 327 5 315 288 297 3 353 25 324 294 291 319 323 334 23 311 218 223 242 268 214 279 272 308 316 357 24 46 65 72
7 16 46 126 96 37 12 22 351 328 289 289 105 62 65 56 37 13 293 284 296 278 291 330 332 317 359 322 294 286 274 290 282 258 270 322 232 324 353 360 34 47 53 54
358 356 17 10 356 336 295 286 293 348 305 323 329 197 247 303 350 348 339 322 315 322 267 10 7 312 316 295 297 354 359 352 341 304 318 321 294 340 352 14 31 30 40 49
332 324 331 348 337 331 349 297 298 330 319 291 286 249 248 265 323 335 330 344 357 34 28 36 0 13 333 338 338 360 18 18 11 350 350 360 3 7 15 25 25 39 52 46
320 301 300 295 300 319 261 297 275 317 314 266 277 245 248 280 286 262 292 330 13 9 22 13 18 356 338 346 352 3 14 16 13 11 13 11 12 10 26 34 43 48 48 48
321 303 292 295 292 296 302 278 299 303 257 248 275 5 184 279 300 297 304 280 268 28 20 356 19 359 17 16 359 7 12 12 15 16 15 19 20 29 27 35 43 48 48 46
324 309 295 293 243 237 254 301 290 264 199 271 246 292 358 189 231 329 298 292 311 285 49 16 354 355 25 339 350 8 16 19 16 19 21 27 27 26 25 29 30 37 34 30
325 317 14 235 240 297 299 299 292 239 238 231 251 265 315 239 191 204 244 339 9 328 41 183 55 281 29 5 359 4 20 21 21 25 24 25 24 25 29 24 27 29 28 25
338 271 257 260 302 312 227 260 230 172 233 206 240 219 308 284 280 150 186 155 259 326 307 330 336 318 9 7 12 6 14 21 28 31 33 32 30 27 29 30 25 24 23 28
282 271 279 283 252 233 258 270 220 231 289 307 300 346 283 257 239 254 199 181 209 235 139 317 323 295 16 2 3 4 1 14 20 30 31 32 34 34 30 27 28 28 30 29
311 273 237 228 200 320 244 273 289 304 333 328 306 312 201 194 227 228 236 234 42 136 190 215 238 7 0 3 358 359 351 329 0 13 24 28 31 33 33 33 30 28 28 28
254 244 296 249 219 254 318 315 322 320 297 312 314 239 205 196 216 204 252 50 225 271 28 258 32 31 324 352 355 350 355 349 329 348 4 15 19 20 22 26 30 30 31 26
261 249 253 236 314 294 290 298 293 293 287 308 278 252 233 195 232 217 135 206 1 220 266 350 21 348 261 316 343 350 353 355 350 351 352 3 12 14 18 21 23 30 33 32
243 239 258 275 278 325 322 283 287 313 306 309 30 280 250 257 267 195 55 27 264 347 336 346 348 29 46 336 324 321 352 353 358 360 1 4 17 19 19 22 23 25 26 32
236 241 275 293 297 307 329 327 326 308 293 10 61 278 307 25 357 52 275 255 318 324 339 346 31 20 7 355 336 296 313 356 2 6 14 16 17 22 26 27 23 25 27 28
Wind_Speed_850mb
49 52 53 52 49 47 43 11 2 28 12 4 4 6 10 9 10 7 14 13 23 24 20 23 21 18 10 15 14 7 1 7 16 23 20 22 22 30 36 34 47 40 39 19
50 49 47 45 41 42 32 12 8 23 15 5 9 13 8 6 15 9 11 14 10 17 22 14 19 13 6 20 18 6 8 8 12 17 34 33 23 39 31 32 41 47 39 38
47 45 41 39 36 33 19 7 2 13 30 27 16 11 17 12 6 12 13 18 21 23 25 25 12 17 12 23 26 10 6 22 23 24 28 22 19 25 29 34 34 40 46 41
43 40 38 37 33 27 18 13 10 10 8 16 11 7 7 7 13 9 16 10 17 18 15 29 32 24 21 25 28 26 17 21 28 35 33 33 36 39 38 40 36 44 41 48
42 38 35 32 28 21 18 9 6 9 10 8 10 10 11 13 9 5 12 15 19 14 14 29 15 19 30 30 29 33 30 26 25 34 32 37 46 47 53 50 50 50 47 57
41 36 30 25 23 22 11 12 9 5 0 3 5 5 4 9 23 9 22 27 17 17 24 33 44 46 39 29 25 33 30 20 24 35 37 41 47 43 54 60 54 55 51 49
40 31 23 17 18 16 13 12 10 2 6 5 7 14 17 18 18 16 23 17 10 7 23 29 35 45 47 52 42 45 28 29 22 28 32 37 45 49 53 62 61 56 52 53
36 26 19 13 15 11 12 10 9 3 3 8 7 18 17 20 17 16 12 11 18 31 34 13 13 23 23 45 51 47 40 24 15 21 25 35 53 47 43 60 59 48 61 60
30 24 17 14 13 12 13 11 8 3 2 3 10 11 16 9 16 14 6 15 20 13 6 5 8 7 6 7 9 38 45 38 21 19 20 30 17 36 79 73 37 35 29 34
26 24 21 16 14 15 15 7 6 2 3 5 9 5 7 8 8 7 18 24 9 4 3 6 6 6 3 7 8 9 28 29 30 30 27 26 29 41 67 19 20 28 12 12
21 20 19 15 15 12 13 6 8 7 3 10 6 6 10 12 10 5 18 15 4 5 5 4 5 5 3 6 3 6 14 12 13 18 18 30 16 34 12 9 25 17 7 19
17 13 16 10 16 12 10 2 3 3 3 5 8 8 11 14 12 15 11 11 9 5 5 4 6 4 6 13 4 2 5 8 5 11 8 9 34 51 32 19 13 9 20 29
16 9 11 12 14 9 9 5 2 4 6 8 6 8 4 7 9 10 9 6 14 5 10 7 4 5 6 8 7 6 4 17 8 6 11 23 25 29 34 11 10 15 22 30
13 10 4 7 6 6 8 9 5 3 7 9 9 7 6 9 11 10 12 24 15 12 5 8 4 6 14 6 6 3 6 15 13 10 11 32 16 35 31 24 21 22 23 29
13 9 6 3 3 4 9 14 8 7 3 11 8 2 6 4 7 15 18 13 12 6 2 4 5 9 7 8 8 3 24 11 8 5 33 12 27 36 32 20 28 25 27 33
12 10 7 6 7 10 6 5 7 13 7 8 6 7 11 11 11 16 13 11 7 10 6 4 7 8 12 7 6 33 47 41 46 26 45 32 44 38 40 37 34 23 30 30
15 14 11 11 11 10 6 7 9 19 10 7 10 5 6 11 14 13 8 10 8 8 5 14 7 10 9 5 9 45 50 45 50 54 50 43 51 49 56 41 31 26 29 29
16 16 14 14 16 13 7 12 20 13 5 7 6 3 7 1 3 6 5 10 4 9 7 10 19 7 12 6 37 41 48 44 51 47 45 43 45 58 59 55 45 47 49 37
19 16 13 14 6 5 12 23 12 6 9 5 4 5 9 4 1 3 4 6 3 1 4 7 9 7 6 17 31 33 40 47 47 47 46 49 51 51 55 56 60 55 47 45
18 9 1 7 7 16 10 4 3 4 5 6 7 4 5 6 6 2 1 4 2 3 4 3 4 5 8 17 23 24 28 34 41 47 56 60 62 59 56 50 49 48 45 44
11 3 5 13 16 1 2 4 8 6 7 10 8 11 12 5 5 2 4 3 2 3 3 4 2 5 12 16 17 16 19 23 30 35 38 40 43 51 54 53 50 46 40 41
13 14 17 8 3 6 8 2 4 6 6 4 13 14 9 4 3 3 5 3 5 3 2 2 5 5 12 14 16 17 9 13 17 22 28 32 38 41 40 45 49 46 43 35
13 1 5 7 6 4 1 3 7 8 14 12 16 12 2 4 6 5 6 8 2 4 3 3 7 8 9 13 14 15 13 7 8 14 20 25 28 31 36 39 42 46 43 45
4 6 7 6 3 6 7 14 14 19 16 21 19 4 9 10 9 5 7 5 6 4 2 5 2 6 4 9 13 16 19 13 10 10 14 20 25 30 33 35 35 37 47 48
7 7 5 7 10 19 13 14 14 12 12 16 12 11 9 8 7 5 1 5 2 4 5 8 18 12 5 4 11 16 19 19 14 13 15 17 23 28 29 29 30 29 32 38
7 9 11 13 18 24 19 14 21 7 11 7 1 7 4 8 4 7 8 8 6 6 8 16 12 7 5 7 9 9 13 16 15 14 14 16 18 22 23 23 27 28 25 29
7 11 13 21 24 24 26 24 25 12 13 6 7 9 4 10 8 7 2 5 11 17 14 10 4 4 6 10 10 7 4 9 9 11 12 15 13 17 21 21 21 25 25 21
Wind_Direction_850mb
342 344 343 346 351 360 10 9 224 354 10 217 358 17 353 349 296 246 276 283 277 275 277 264 251 244 253 167 180 239 149 312 259 251 266 281 284 279 248 232 225 236 261 252
341 343 345 349 1 6 6 4 3 2 16 7 46 28 31 326 309 337 319 289 296 291 270 259 244 223 227 181 208 225 178 213 274 227 213 227 237 244 241 263 272 254 228 228
344 346 349 357 9 11 32 350 354 55 61 55 51 5 23 9 326 298 311 286 284 278 261 249 246 228 199 211 228 126 234 265 248 274 318 346 285 278 280 248 249 250 246 260
348 350 352 360 15 25 53 8 63 17 21 49 47 100 349 335 7 319 305 281 271 265 259 255 238 229 242 214 221 203 236 241 248 256 264 275 270 270 259 255 255 256 264 254
350 350 351 357 22 44 42 29 40 51 80 342 334 35 4 339 346 281 301 267 317 301 254 261 267 281 235 234 221 220 224 255 264 268 261 257 258 260 264 250 249 255 256 265
348 349 352 3 32 61 72 92 83 106 210 304 328 29 283 291 319 298 272 300 297 271 262 256 259 275 257 249 255 223 212 238 245 257 261 254 249 251 257 258 240 242 243 242
347 351 360 9 49 67 90 97 105 165 90 35 360 325 330 348 331 288 293 294 263 301 293 291 262 250 242 240 238 241 224 224 245 257 274 263 259 254 259 253 242 235 242 247
351 6 20 34 55 68 79 91 93 97 23 344 350 344 337 327 328 315 312 309 295 296 288 277 265 252 247 242 238 224 224 220 244 242 248 263 278 272 266 235 231 229 238 226
6 22 31 49 80 82 86 84 89 84 318 53 315 329 331 331 346 333 322 332 318 310 302 261 266 275 281 289 257 213 215 202 214 242 250 260 267 321 319 309 208 199 226 241
23 40 49 72 97 103 101 91 78 100 310 6 328 333 314 297 294 293 284 335 326 359 285 259 286 307 11 248 238 186 199 206 214 231 251 271 288 301 302 244 163 156 168 267
30 51 63 93 116 113 113 113 95 113 315 337 336 305 306 299 268 289 311 312 59 305 288 301 342 287 305 274 62 213 186 185 212 233 244 255 18 305 227 35 91 101 141 112
16 59 89 106 114 116 92 322 258 269 217 322 330 308 293 279 298 315 309 314 354 320 307 337 299 305 315 315 39 46 200 219 282 220 228 339 296 282 328 2 74 67 78 88
14 26 119 107 83 70 71 40 336 57 295 267 11 33 327 5 315 288 297 3 353 25 324 294 291 319 323 334 23 311 218 223 242 268 214 279 272 308 316 357 24 46 65 72
7 16 46 126 96 37 12 22 351 328 289 289 105 62 65 56 37 13 293 284 296 278 291 330 332 317 359 322 294 286 274 290 282 258 270 322 232 324 353 360 34 47 53 54
358 356 17 10 356 336 295 286 293 348 305 323 329 197 247 303 350 348 339 322 315 322 267 10 7 312 316 295 297 354 359 352 341 304 318 321 294 340 352 14 31 30 40 49
332 324 331 348 337 331 349 297 298 330 319 291 286 249 248 265 323 335 330 344 357 34 28 36 0 13 333 338 338 360 18 18 11 350 350 360 3 7 15 25 25 39 52 46
320 301 300 295 300 319 261 297 275 317 314 266 277 245 248 280 286 262 292 330 13 9 22 13 18 356 338 346 352 3 14 16 13 11 13 11 12 10 26 34 43 48 48 48
321 303 292 295 292 296 302 278 299 303 257 248 275 5 184 279 300 297 304 280 268 28 20 356 19 359 17 16 359 7 12 12 15 16 15 19 20 29 27 35 43 48 48 46
324 309 295 293 243 237 254 301 290 264 199 271 246 292 358 189 231 329 298 292 311 285 49 16 354 355 25 339 350 8 16 19 16 19 21 27 27 26 25 29 30 37 34 30
325 317 14 235 240 297 299 299 292 239 238 231 251 265 315 239 191 204 244 339 9 328 41 183 55 281 29 5 359 4 20 21 21 25 24 25 24 25 29 24 27 29 28 25
338 271 257 260 302 312 227 260 230 172 233 206 240 219 308 284 280 150 186 155 259 326 307 330 336 318 9 7 12 6 14 21 28 31 33 32 30 27 29 30 25 24 23 28
282 271 279 283 252 233 258 270 220 231 289 307 300 346 283 257 239 254 199 181 209 235 139 317 323 295 16 2 3 4 1 14 20 30 31 32 34 34 30 27 28 28 30 29
311 273 237 228 200 320 244 273 289 304 333 328 306 312 201 194 227 228 236 234 42 136 190 215 238 7 0 3 358 359 351 329 0 13 24 28 31 33 33 33 30 28 28 28
254 244 296 249 219 254 318 315 322 320 297 312 314 239 205 196 216 204 252 50 225 271 28 258 32 31 324 352 355 350 355 349 329 348 4 15 19 20 22 26 30 30 31 26
261 249 253 236 314 294 290 298 293 293 287 308 278 252 233 195 232 217 135 206 1 220 266 350 21 348 261 316 343 350 353 355 350 351 352 3 12 14 18 21 23 30 33 32
243 239 258 275 278 325 322 283 287 313 306 309 30 280 250 257 267 195 55 27 264 347 336 346 348 29 46 336 324 321 352 353 358 360 1 4 17 19 19 22 23 25 26 32
236 241 275 293 297 307 329 327 326 308 293 10 61 278 307 25 357 52 275 255 318 324 339 346 31 20 7 355 336 296 313 356 2 6 14 16 17 22 26 27 23 25 27 28